Satellite-Ground Cal/Val Site Overpasses Predictions

Prediction of Satellite NPP Overpassing Cal/Val Site: Antarctic Dome C

Ground Cal/Val Site Location: Latitude: -75.10, Longitude: 123.35; Satellite-Ground Site NADIR distance within 100 km.

Table of predicted overpasses for the next 14.0 days since TLE Epoch: 5/27/2023
Interval Starting Time Ending Time Minimum Distance Time Minimum Distance (km)
1 05/27/2023 15:02:58 05/27/2023 15:03:22 05/27/2023 15:03:10 53.49
2 05/28/2023 14:44:08 05/28/2023 14:44:32 05/28/2023 14:44:20 55.55
3 05/29/2023 07:45:48 05/29/2023 07:46:08 05/29/2023 07:45:58 71.79
4 05/30/2023 07:26:54 05/30/2023 07:27:22 05/30/2023 07:27:08 36.24
5 06/01/2023 15:09:17 06/01/2023 15:09:29 06/01/2023 15:09:23 91.12
6 06/02/2023 14:50:17 06/02/2023 14:50:46 06/02/2023 14:50:32 20.13
7 06/04/2023 07:33:06 06/04/2023 07:33:35 06/04/2023 07:33:21 3.27
8 06/07/2023 14:56:29 06/07/2023 14:56:58 06/07/2023 14:56:44 16.33
9 06/08/2023 14:37:48 06/08/2023 14:38:00 06/08/2023 14:37:54 90.61
